When you browse on this site, cookies collect data to enhance your experience and personalize the content and advertising you see.
Visit our Privacy Policy to learn more. By continuing to use the site, you agree to this use of cookies and data.
  • Em Portugal
  • Lista de países
  • Para 7 dias
  • Temperatura da água
  • Mapas de satélite
  • Mapa do tempo
  • Widgets de tempo
  • user-avatar
    Iniciar Sessão

    Previsão horária em Montana

    Hoje, 19 Abril, Sexta-feira

    Tempo Temperatura Precipitação Vento Pressão Humidade
    00:00 +7°C° 0 mm 1 m/s 742 mmHg 88%
    01:00 +7°C° 0 mm 1 m/s 742 mmHg 84%
    02:00 +6°C° 0 mm 0 m/s 742 mmHg 84%
    03:00 +6°C° 0 mm 1 m/s 742 mmHg 82%
    04:00 +6°C° 0 mm 1 m/s 742 mmHg 80%
    05:00 +6°C° 0 mm 1 m/s 742 mmHg 77%
    06:00 +8°C° 0 mm 1 m/s 741 mmHg 73%
    07:00 +9°C° 0 mm 1 m/s 741 mmHg 69%
    08:00 +10°C° 0 mm 2 m/s 741 mmHg 67%
    09:00 +13°C° 0 mm 2 m/s 741 mmHg 62%
    10:00 +14°C° 0 mm 2 m/s 741 mmHg 56%
    11:00 +16°C° 0 mm 3 m/s 741 mmHg 51%
    12:00 +16°C° 0 mm 3 m/s 740 mmHg 50%
    13:00 +17°C° 0 mm 4 m/s 740 mmHg 50%
    14:00 +18°C° 0 mm 4 m/s 739 mmHg 49%
    15:00 +17°C° 0.1 mm 4 m/s 739 mmHg 50%
    16:00 +17°C° 0.1 mm 4 m/s 738 mmHg 51%
    17:00 +17°C° 0.1 mm 4 m/s 738 mmHg 52%
    18:00 +14°C° 0.2 mm 4 m/s 738 mmHg 61%
    19:00 +13°C° 0.2 mm 3 m/s 739 mmHg 69%
    20:00 +12°C° 0.2 mm 2 m/s 739 mmHg 77%
    21:00 +10°C° 0.2 mm 2 m/s 739 mmHg 81%
    22:00 +11°C° 0.2 mm 1 m/s 740 mmHg 85%
    23:00 +10°C° 0.2 mm 1 m/s 740 mmHg 89%

    Amanhã, 20 Abril, Sábado

    Tempo Temperatura Precipitação Vento Pressão Humidade
    00:00 +10°C° 0 mm 1 m/s 740 mmHg 87%
    01:00 +9°C° 0 mm 1 m/s 740 mmHg 85%
    02:00 +8°C° 0 mm 1 m/s 740 mmHg 84%
    03:00 +8°C° 0 mm 1 m/s 740 mmHg 82%
    04:00 +6°C° 0 mm 0 m/s 741 mmHg 81%
    05:00 +6°C° 0 mm 0 m/s 741 mmHg 79%
    06:00 +8°C° 0 mm 1 m/s 741 mmHg 77%
    07:00 +9°C° 0 mm 1 m/s 741 mmHg 76%
    08:00 +9°C° 0 mm 2 m/s 741 mmHg 74%
    09:00 +10°C° 0 mm 2 m/s 742 mmHg 68%
    10:00 +12°C° 0 mm 2 m/s 742 mmHg 63%
    11:00 +12°C° 0 mm 3 m/s 742 mmHg 57%
    12:00 +12°C° 0 mm 3 m/s 742 mmHg 55%
    13:00 +14°C° 0 mm 2 m/s 741 mmHg 53%
    14:00 +14°C° 0 mm 2 m/s 741 mmHg 51%
    15:00 +14°C° 0 mm 2 m/s 741 mmHg 52%
    16:00 +14°C° 0 mm 2 m/s 741 mmHg 52%
    17:00 +14°C° 0 mm 2 m/s 741 mmHg 52%
    18:00 +12°C° 0 mm 2 m/s 741 mmHg 58%
    19:00 +9°C° 0 mm 2 m/s 741 mmHg 63%
    20:00 +8°C° 0 mm 2 m/s 741 mmHg 69%
    21:00 +7°C° 0 mm 2 m/s 741 mmHg 67%
    22:00 +7°C° 0 mm 2 m/s 741 mmHg 66%
    23:00 +6°C° 0 mm 2 m/s 742 mmHg 65%

    Depois de amanhã, 21 Abril, Domingo

    Tempo Temperatura Precipitação Vento Pressão Humidade
    00:00 +6°C° 0 mm 2 m/s 741 mmHg 64%
    01:00 +6°C° 0 mm 2 m/s 741 mmHg 62%
    02:00 +6°C° 0 mm 2 m/s 741 mmHg 61%
    03:00 +7°C° 0 mm 1 m/s 741 mmHg 61%
    04:00 +7°C° 0 mm 1 m/s 741 mmHg 61%
    05:00 +7°C° 0 mm 1 m/s 740 mmHg 61%
    06:00 +9°C° 0 mm 1 m/s 740 mmHg 60%
    07:00 +10°C° 0 mm 1 m/s 741 mmHg 59%
    08:00 +11°C° 0 mm 1 m/s 741 mmHg 58%
    09:00 +12°C° 0 mm 1 m/s 740 mmHg 56%
    10:00 +14°C° 0 mm 1 m/s 740 mmHg 55%
    11:00 +15°C° 0 mm 1 m/s 740 mmHg 53%
    12:00 +15°C° 0.1 mm 1 m/s 739 mmHg 52%
    13:00 +16°C° 0.1 mm 1 m/s 739 mmHg 52%
    14:00 +16°C° 0.1 mm 1 m/s 738 mmHg 52%
    15:00 +16°C° 0.3 mm 1 m/s 738 mmHg 53%
    16:00 +16°C° 0.3 mm 1 m/s 738 mmHg 53%
    17:00 +16°C° 0.3 mm 1 m/s 737 mmHg 54%
    18:00 +14°C° 0.1 mm 1 m/s 737 mmHg 60%
    19:00 +12°C° 0.1 mm 1 m/s 737 mmHg 65%
    20:00 +11°C° 0.1 mm 1 m/s 737 mmHg 71%
    21:00 +11°C° 0 mm 1 m/s 738 mmHg 71%
    22:00 +10°C° 0 mm 1 m/s 738 mmHg 72%
    23:00 +9°C° 0 mm 2 m/s 738 mmHg 73%

    22 Abril, Segunda-feira

    Tempo Temperatura Precipitação Vento Pressão Humidade
    00:00 +9°C° 0 mm 2 m/s 738 mmHg 74%
    01:00 +8°C° 0 mm 2 m/s 738 mmHg 75%
    02:00 +8°C° 0 mm 2 m/s 738 mmHg 76%
    03:00 +8°C° 0 mm 2 m/s 738 mmHg 77%
    04:00 +7°C° 0 mm 2 m/s 738 mmHg 77%
    05:00 +7°C° 0 mm 2 m/s 738 mmHg 78%
    06:00 +8°C° 0 mm 2 m/s 738 mmHg 74%
    07:00 +11°C° 0 mm 1 m/s 738 mmHg 70%
    08:00 +12°C° 0 mm 1 m/s 738 mmHg 67%
    09:00 +14°C° 0 mm 2 m/s 738 mmHg 61%
    10:00 +15°C° 0 mm 2 m/s 738 mmHg 55%
    11:00 +17°C° 0 mm 3 m/s 738 mmHg 49%
    12:00 +18°C° 0 mm 3 m/s 738 mmHg 47%
    13:00 +18°C° 0 mm 3 m/s 737 mmHg 45%
    14:00 +19°C° 0 mm 3 m/s 737 mmHg 43%
    15:00 +18°C° 0 mm 3 m/s 737 mmHg 47%
    16:00 +18°C° 0 mm 4 m/s 736 mmHg 51%
    17:00 +17°C° 0 mm 4 m/s 736 mmHg 55%
    18:00 +16°C° 0 mm 3 m/s 736 mmHg 61%
    19:00 +13°C° 0 mm 3 m/s 737 mmHg 68%
    20:00 +13°C° 0 mm 2 m/s 737 mmHg 75%
    21:00 +11°C° 0 mm 3 m/s 737 mmHg 76%
    22:00 +11°C° 0 mm 3 m/s 737 mmHg 78%
    23:00 +10°C° 0 mm 3 m/s 738 mmHg 79%

    23 Abril, Terça-feira

    Tempo Temperatura Precipitação Vento Pressão Humidade
    00:00 +10°C° 0 mm 3 m/s 738 mmHg 79%
    01:00 +10°C° 0 mm 3 m/s 738 mmHg 80%
    02:00 +9°C° 0 mm 2 m/s 738 mmHg 80%
    03:00 +9°C° 0.2 mm 2 m/s 738 mmHg 80%
    04:00 +9°C° 0.2 mm 2 m/s 738 mmHg 81%
    05:00 +9°C° 0.2 mm 2 m/s 738 mmHg 81%
    06:00 +9°C° 0.1 mm 2 m/s 738 mmHg 80%
    07:00 +10°C° 0.1 mm 2 m/s 738 mmHg 78%
    08:00 +10°C° 0.1 mm 2 m/s 739 mmHg 76%
    09:00 +11°C° 0.4 mm 3 m/s 739 mmHg 76%
    10:00 +11°C° 0.4 mm 3 m/s 738 mmHg 76%
    11:00 +12°C° 0.4 mm 3 m/s 738 mmHg 75%
    12:00 +13°C° 0.4 mm 3 m/s 738 mmHg 74%
    13:00 +13°C° 0.4 mm 3 m/s 737 mmHg 73%
    14:00 +14°C° 0.4 mm 3 m/s 737 mmHg 72%
    15:00 +14°C° 0.1 mm 4 m/s 737 mmHg 72%
    16:00 +15°C° 0.1 mm 4 m/s 737 mmHg 72%
    17:00 +15°C° 0.1 mm 4 m/s 736 mmHg 72%
    18:00 +13°C° 0 mm 3 m/s 737 mmHg 78%
    19:00 +13°C° 0 mm 2 m/s 737 mmHg 84%
    20:00 +10°C° 0 mm 2 m/s 737 mmHg 91%
    21:00 +10°C° 0 mm 2 m/s 737 mmHg 90%
    22:00 +10°C° 0 mm 1 m/s 738 mmHg 89%
    23:00 +10°C° 0 mm 1 m/s 738 mmHg 88%

    24 Abril, Quarta-feira

    Tempo Temperatura Precipitação Vento Pressão Humidade
    00:00 +10°C° 0.3 mm 1 m/s 738 mmHg 89%
    01:00 +10°C° 0.3 mm 1 m/s 738 mmHg 90%
    02:00 +10°C° 0.3 mm 1 m/s 738 mmHg 90%
    03:00 +9°C° 0 mm 1 m/s 738 mmHg 91%
    04:00 +9°C° 0 mm 1 m/s 739 mmHg 92%
    05:00 +8°C° 0 mm 1 m/s 739 mmHg 93%
    06:00 +9°C° 0 mm 1 m/s 739 mmHg 90%
    07:00 +10°C° 0 mm 1 m/s 739 mmHg 87%
    08:00 +11°C° 0 mm 1 m/s 739 mmHg 83%
    09:00 +13°C° 0 mm 1 m/s 739 mmHg 79%
    10:00 +14°C° 0 mm 2 m/s 739 mmHg 75%
    11:00 +15°C° 0 mm 2 m/s 739 mmHg 71%
    12:00 +16°C° 0 mm 2 m/s 739 mmHg 71%
    13:00 +16°C° 0 mm 2 m/s 739 mmHg 71%
    14:00 +17°C° 0 mm 2 m/s 738 mmHg 72%
    15:00 +17°C° 0 mm 2 m/s 738 mmHg 72%
    16:00 +17°C° 0 mm 2 m/s 738 mmHg 73%
    17:00 +17°C° 0 mm 2 m/s 738 mmHg 73%
    18:00 +16°C° 0 mm 2 m/s 738 mmHg 80%
    19:00 +15°C° 0 mm 2 m/s 738 mmHg 86%
    20:00 +14°C° 0 mm 1 m/s 738 mmHg 92%
    21:00 +13°C° 0 mm 1 m/s 739 mmHg 93%
    22:00 +13°C° 0 mm 1 m/s 739 mmHg 94%
    23:00 +13°C° 0 mm 1 m/s 739 mmHg 94%
    Mostrar mais